TimeCST,TemperatureF,Dew PointF,Humidity,Sea Level PressureIn,VisibilityMPH,Wind Direction,Wind SpeedMPH,Gust SpeedMPH,PrecipitationIn,Events,Conditions,WindDirDegrees,DateUTC
12:56 AM,9.0,6.1,88,30.36,10.0,SW,4.6,-,N/A,,Clear,220,2013-02-16 06:56:00
1:56 AM,8.1,3.9,83,30.35,10.0,West,5.8,-,N/A,,Clear,260,2013-02-16 07:56:00
2:56 AM,14.0,9.0,80,30.32,10.0,SW,5.8,-,N/A,,Clear,230,2013-02-16 08:56:00
3:56 AM,15.1,10.0,80,30.29,10.0,SW,5.8,-,N/A,,Clear,230,2013-02-16 09:56:00
5:56 AM,17.1,12.0,81,30.24,10.0,SSW,9.2,-,N/A,,Overcast,210,2013-02-16 11:56:00
6:56 AM,18.0,12.9,81,30.21,10.0,SSW,6.9,-,N/A,,Overcast,210,2013-02-16 12:56:00
7:56 AM,21.0,15.1,78,30.18,10.0,SSW,12.7,-,N/A,,Overcast,200,2013-02-16 13:56:00
8:56 AM,23.0,17.1,78,30.17,10.0,SSW,17.3,-,N/A,,Overcast,210,2013-02-16 14:56:00
9:56 AM,26.1,21.0,81,30.15,4.0,SSW,13.8,-,0.00,Snow,Light Snow,200,2013-02-16 15:56:00
10:56 AM,28.0,23.0,81,30.13,10.0,South,17.3,-,0.00,,Overcast,190,2013-02-16 16:56:00
11:56 AM,28.9,23.0,78,30.12,10.0,South,16.1,-,N/A,,Overcast,190,2013-02-16 17:56:00
12:36 PM,28.4,23.0,80,30.02,10.0,South,12.7,-,N/A,,Overcast,190,2013-02-16 18:36:00
12:56 PM,30.0,24.1,79,30.09,10.0,South,15.0,-,N/A,,Overcast,190,2013-02-16 18:56:00
1:32 PM,33.8,24.8,70,30.00,10.0,SSW,15.0,-,N/A,,Overcast,200,2013-02-16 19:32:00
1:41 PM,33.8,24.8,70,29.99,10.0,South,15.0,-,N/A,,Overcast,180,2013-02-16 19:41:00
1:53 PM,33.8,24.8,70,29.99,10.0,South,10.4,-,N/A,,Mostly Cloudy,180,2013-02-16 19:53:00
1:56 PM,34.0,25.0,70,30.06,10.0,South,10.4,-,N/A,,Mostly Cloudy,190,2013-02-16 19:56:00
2:05 PM,33.8,24.8,70,29.99,10.0,South,13.8,-,N/A,,Mostly Cloudy,190,2013-02-16 20:05:00
2:56 PM,36.0,25.0,64,30.04,10.0,SSW,10.4,-,N/A,,Overcast,200,2013-02-16 20:56:00
3:35 PM,37.4,26.6,65,29.97,10.0,South,8.1,-,N/A,,Overcast,180,2013-02-16 21:35:00
3:56 PM,37.9,25.0,60,30.03,10.0,Variable,3.5,-,N/A,,Scattered Clouds,0,2013-02-16 21:56:00
4:56 PM,37.0,25.0,62,30.03,10.0,South,6.9,-,N/A,,Overcast,170,2013-02-16 22:56:00
5:56 PM,35.1,25.0,67,30.03,10.0,SE,5.8,-,N/A,,Overcast,140,2013-02-16 23:56:00
6:56 PM,34.0,25.0,70,30.03,10.0,ESE,4.6,-,N/A,,Overcast,120,2013-02-17 00:56:00
7:56 PM,33.1,25.0,72,30.02,10.0,SE,5.8,-,N/A,,Overcast,140,2013-02-17 01:56:00
8:56 PM,28.9,24.1,82,30.02,10.0,ESE,4.6,-,N/A,,Scattered Clouds,110,2013-02-17 02:56:00
9:56 PM,26.1,21.9,84,30.02,10.0,ESE,4.6,-,N/A,,Clear,120,2013-02-17 03:56:00
10:56 PM,26.1,21.9,84,30.02,10.0,ESE,4.6,-,N/A,,Clear,120,2013-02-17 04:56:00